User: anonymous   Login
Location: Brunembert
(50.7122°N, 1.8935°E)
Time: 04:11:59
(UTC+00:00)
Language:

IRS-1A Rocket - Orbit

View from above orbital plane
View from above orbital plane
View from above satellite
View from above satellite

Ground track
Ground track

The orbit data is extracted from the following two-line orbital elements,

1 18961U 88021B   21174.76945516 -.00000319  00000-0 -18137-3 0  9990
2 18961  99.1817 224.5507 0054804 159.1674 309.0236 14.00707063700863
Epoch (UTC): 23 June 2021 18:28:00
Eccentricity: 0.0054804
inclination: 99.1817°
perigee height: 851 km
apogee height: 931 km
right ascension of ascending node: 224.5507°
argument of perigee: 159.1674°
revolutions per day: 14.00707063
mean anomaly at epoch: 309.0236°
orbit number at epoch: 70086

The dashed part of the orbit path shows where the satellite is in the earth's shadow,  

DLR